Weather History for KSUS - October, 2011

Change the Weather History Date:

Tuesday, October 11, 2011

  Actual Average Record
Temperature  
Mean Temperature 66 °F -  
Max Temperature 80 °F 68 °F 86 °F (1997)
Min Temperature 53 °F 43 °F 30 °F (2000)
Cooling Degree Days 2    
Growing Degree Days 16 (Base 50)    
Moisture  
Dew Point 56 °F    
Average Humidity 81    
Maximum Humidity 100    
Minimum Humidity 47    
Precipitation  
Precipitation 0.00 in - - ()
Sea Level Pressure  
Sea Level Pressure 29.95 in    
Wind  
Wind Speed 1 mph (ESE)    
Max Wind Speed 7 mph    
Max Gust Speed -    
Visibility 7 miles    
Events Fog    
Averages and records for this station are not official NWS values.
T = Trace of Precipitation, MM = Missing Value Source: NWS Daily Summary

Daily Weather History Graph

Daily Weather History Graph

Search for Another Location

Airport or City:

Trip Planner

Search our weather history database for the weather conditions in past years. The results will help you decide how hot, cold, wet, or windy it might be!

Date:

Astronomy

Oct. 11, 2011 Rise Set
Actual Time 7:07 AM CDT 6:30 PM CDT
Civil Twilight 6:41 AM CDT 6:57 PM CDT
Nautical Twilight 6:10 AM CDT 7:27 PM CDT
Astronomical Twilight 5:39 AM CDT 7:58 PM CDT
Moon 6:03 PM CDT (10/11) 6:45 AM CDT (10/11)
Length of Visible Light 12h 16m
Length of Day
11h 22m
Full, 100% of the Moon is Illuminated
Oct 11
Full
Oct 11
Full
Oct 19
Last Quarter
Oct 26
New
Nov 2
First Quarter

Hourly Weather History & Observations

Time (CDT) Temp. Heat Index Dew Point Humidity Pressure Visibility Wind Dir Wind Speed Gust Speed Precip Events Conditions
12:54 AM 57.2 °F - 55.4 °F 94% 30.00 in 10.0 mi Calm Calm - N/A   Clear
1:54 AM 55.9 °F - 54.0 °F 93% 29.99 in 6.0 mi Calm Calm - N/A   Clear
2:14 AM 55.4 °F - 53.6 °F 94% 30.00 in 1.8 mi Calm Calm - N/A   Clear
2:23 AM 55.4 °F - 53.6 °F 94% 30.00 in 0.5 mi Calm Calm - N/A Fog Fog
2:49 AM 53.6 °F - 53.6 °F 100% 29.99 in 1.2 mi Calm Calm - N/A   Clear
2:54 AM 54.0 °F - 53.1 °F 97% 29.99 in 0.8 mi Calm Calm - N/A   Clear
3:02 AM 53.6 °F - 53.6 °F 100% 29.99 in 1.0 mi Calm Calm - N/A   Clear
3:08 AM 53.6 °F - 53.6 °F 100% 29.99 in 0.5 mi Calm Calm - N/A Fog Fog
3:41 AM 53.6 °F - 53.6 °F 100% 29.99 in 1.0 mi Calm Calm - N/A   Clear
3:54 AM 55.0 °F - 53.1 °F 93% 29.99 in 2.0 mi Calm Calm - N/A   Clear
4:01 AM 53.6 °F - 53.6 °F 100% 29.99 in 1.2 mi Calm Calm - N/A   Clear
4:13 AM 53.6 °F - 51.8 °F 94% 29.99 in 0.5 mi WSW 3.5 mph - N/A Fog Fog
4:19 AM 53.6 °F - 51.8 °F 94% 29.99 in 2.0 mi Calm Calm - N/A   Mostly Cloudy
4:54 AM 55.4 °F - 53.6 °F 94% 30.00 in 6.0 mi East 3.5 mph - N/A   Overcast
5:54 AM 55.9 °F - 54.0 °F 93% 29.99 in 9.0 mi Calm Calm - N/A   Partly Cloudy
6:54 AM 57.0 °F - 55.0 °F 93% 29.99 in 10.0 mi Calm Calm - N/A   Mostly Cloudy
7:54 AM 59.0 °F - 57.0 °F 93% 29.99 in 10.0 mi Calm Calm - N/A   Mostly Cloudy
8:54 AM 64.9 °F - 60.1 °F 84% 29.99 in 10.0 mi Calm Calm - N/A   Mostly Cloudy
9:54 AM 72.0 °F - 60.1 °F 66% 29.98 in 10.0 mi Calm Calm - N/A   Mostly Cloudy
10:54 AM 77.0 °F - 60.1 °F 56% 29.96 in 10.0 mi Calm Calm - N/A   Mostly Cloudy
11:54 AM 75.0 °F - 61.0 °F 62% 29.96 in 10.0 mi NNW 4.6 mph - N/A   Overcast
12:54 PM 77.0 °F - 59.0 °F 54% 29.94 in 10.0 mi Calm Calm - N/A   Partly Cloudy
1:54 PM 78.8 °F - 60.8 °F 54% 29.92 in 10.0 mi Calm Calm - N/A   Scattered Clouds
2:54 PM 77.0 °F - 59.0 °F 54% 29.89 in 10.0 mi East 5.8 mph - N/A   Scattered Clouds
3:54 PM 80.1 °F 80.6 °F 57.9 °F 47% 29.86 in 10.0 mi ESE 6.9 mph - N/A   Mostly Cloudy
4:54 PM 78.1 °F - 57.9 °F 50% 29.86 in 10.0 mi East 6.9 mph - N/A   Mostly Cloudy
5:54 PM 75.9 °F - 57.9 °F 54% 29.86 in 10.0 mi SSE 5.8 mph - N/A   Mostly Cloudy
6:54 PM 73.0 °F - 59.0 °F 61% 29.85 in 10.0 mi SE 3.5 mph - N/A   Scattered Clouds
7:54 PM 70.0 °F - 59.0 °F 68% 29.86 in 10.0 mi Calm Calm - N/A   Scattered Clouds
8:54 PM 64.9 °F - 59.0 °F 81% 29.86 in 10.0 mi Calm Calm - N/A   Mostly Cloudy
9:54 PM 62.1 °F - 57.0 °F 84% 29.86 in 10.0 mi Calm Calm - N/A   Scattered Clouds
10:54 PM 63.0 °F - 59.0 °F 87% 29.85 in 10.0 mi Calm Calm - N/A   Overcast
11:54 PM 63.0 °F - 60.1 °F 90% 29.84 in 10.0 mi Calm Calm - N/A   Overcast